TimeCDT,TemperatureF,Dew PointF,Humidity,Sea Level PressureIn,VisibilityMPH,Wind Direction,Wind SpeedMPH,Gust SpeedMPH,PrecipitationIn,Events,Conditions,WindDirDegrees,DateUTC
12:15 AM,65.7,65.7,100,30.07,5.0,Calm,Calm,-,N/A,,Clear,0,2013-09-07 05:15:00
12:35 AM,64.0,64.0,100,30.07,1.8,Calm,Calm,-,N/A,,Mist,0,2013-09-07 05:35:00
12:55 AM,65.3,65.3,100,30.07,2.5,Calm,Calm,-,N/A,,Clear,0,2013-09-07 05:55:00
1:15 AM,65.3,65.3,100,30.07,4.0,Calm,Calm,-,N/A,,Clear,0,2013-09-07 06:15:00
1:35 AM,63.9,63.9,100,30.07,5.0,Calm,Calm,-,N/A,,Clear,0,2013-09-07 06:35:00
1:55 AM,63.7,63.7,100,30.06,4.0,Calm,Calm,-,N/A,,Clear,0,2013-09-07 06:55:00
2:15 AM,64.0,64.0,100,30.06,1.5,Calm,Calm,-,N/A,,Mist,0,2013-09-07 07:15:00
2:35 AM,64.2,64.2,100,30.07,4.0,North,3.5,-,N/A,,Clear,360,2013-09-07 07:35:00
2:55 AM,63.1,63.1,100,30.06,2.5,Calm,Calm,-,N/A,,Clear,0,2013-09-07 07:55:00
3:15 AM,63.0,63.0,100,30.06,0.8,Calm,Calm,-,N/A,,Mist,0,2013-09-07 08:15:00
3:35 AM,63.5,63.5,100,30.06,2.0,Calm,Calm,-,N/A,,Clear,0,2013-09-07 08:35:00
3:55 AM,62.4,62.4,100,30.06,2.0,Calm,Calm,-,N/A,,Scattered Clouds,0,2013-09-07 08:55:00
4:15 AM,63.5,63.5,100,30.06,4.0,Calm,Calm,-,N/A,,Clear,0,2013-09-07 09:15:00
4:35 AM,63.0,63.0,100,30.06,4.0,Calm,Calm,-,N/A,,Clear,0,2013-09-07 09:35:00
4:55 AM,63.0,63.0,100,30.06,1.0,Calm,Calm,-,N/A,,Mostly Cloudy,0,2013-09-07 09:55:00
5:15 AM,62.8,62.8,100,30.06,4.0,Calm,Calm,-,N/A,,Scattered Clouds,0,2013-09-07 10:15:00
5:35 AM,61.9,61.9,100,30.06,0.2,Calm,Calm,-,N/A,Fog,Fog,0,2013-09-07 10:35:00
5:55 AM,62.1,62.1,100,30.07,0.2,Calm,Calm,-,N/A,Fog,Fog,0,2013-09-07 10:55:00
6:15 AM,62.4,62.4,100,30.08,0.2,Calm,Calm,-,N/A,Fog,Fog,0,2013-09-07 11:15:00
6:35 AM,62.8,62.8,100,30.08,0.2,Calm,Calm,-,N/A,Fog,Fog,0,2013-09-07 11:35:00
6:55 AM,62.8,62.8,100,30.08,0.2,Calm,Calm,-,N/A,Fog,Fog,0,2013-09-07 11:55:00
7:15 AM,63.1,63.1,100,30.08,0.2,Calm,Calm,-,N/A,Fog,Fog,0,2013-09-07 12:15:00
7:35 AM,64.4,64.4,100,30.08,0.2,Calm,Calm,-,N/A,Fog,Fog,0,2013-09-07 12:35:00
7:55 AM,65.8,65.8,100,30.08,0.2,Calm,Calm,-,N/A,Fog,Fog,0,2013-09-07 12:55:00
8:15 AM,68.0,68.0,100,30.08,2.5,Calm,Calm,-,N/A,,Scattered Clouds,0,2013-09-07 13:15:00
8:35 AM,69.3,69.3,100,30.08,3.0,Calm,Calm,-,N/A,,Clear,0,2013-09-07 13:35:00
8:55 AM,71.4,71.4,100,30.08,10.0,Calm,Calm,-,N/A,,Clear,0,2013-09-07 13:55:00
9:15 AM,74.3,73.2,96,30.08,10.0,Calm,Calm,-,N/A,,Clear,0,2013-09-07 14:15:00
9:35 AM,77.4,70.5,79,30.08,10.0,WSW,3.5,-,N/A,,Clear,250,2013-09-07 14:35:00
9:55 AM,78.8,70.5,76,30.08,10.0,SW,3.5,-,N/A,,Clear,220,2013-09-07 14:55:00
10:15 AM,79.7,68.9,69,30.08,10.0,SW,4.6,-,N/A,,Clear,230,2013-09-07 15:15:00
10:35 AM,81.1,69.4,67,30.08,10.0,SSW,4.6,-,N/A,,Clear,210,2013-09-07 15:35:00
10:55 AM,82.2,68.9,64,30.08,10.0,WSW,3.5,-,N/A,,Clear,250,2013-09-07 15:55:00
11:15 AM,82.9,67.6,60,30.08,10.0,SW,4.6,-,N/A,,Clear,220,2013-09-07 16:15:00
11:35 AM,83.3,67.3,58,30.08,10.0,SSW,3.5,-,N/A,,Clear,210,2013-09-07 16:35:00
11:55 AM,84.4,68.0,58,30.07,10.0,WSW,4.6,-,N/A,,Clear,240,2013-09-07 16:55:00
12:15 PM,85.5,66.9,54,30.06,10.0,West,4.6,-,N/A,,Clear,280,2013-09-07 17:15:00
12:35 PM,85.5,66.9,54,30.06,10.0,WSW,4.6,-,N/A,,Clear,250,2013-09-07 17:35:00
12:55 PM,86.2,65.8,51,30.05,10.0,West,6.9,-,N/A,,Clear,280,2013-09-07 17:55:00
1:15 PM,85.8,66.9,53,30.05,10.0,WNW,4.6,-,N/A,,Clear,290,2013-09-07 18:15:00
1:35 PM,86.4,66.2,51,30.04,10.0,Calm,Calm,-,N/A,,Clear,0,2013-09-07 18:35:00
1:55 PM,87.1,66.0,49,30.03,10.0,WSW,5.8,-,N/A,,Clear,250,2013-09-07 18:55:00
2:15 PM,87.4,66.7,50,30.02,10.0,WNW,3.5,-,N/A,,Clear,290,2013-09-07 19:15:00
2:35 PM,87.3,66.9,51,30.02,10.0,West,6.9,-,N/A,,Clear,260,2013-09-07 19:35:00
2:55 PM,87.8,66.4,49,30.00,10.0,West,9.2,-,N/A,,Clear,270,2013-09-07 19:55:00
3:15 PM,87.8,66.0,48,29.99,10.0,SW,6.9,-,N/A,,Clear,230,2013-09-07 20:15:00
3:35 PM,87.3,67.5,52,29.99,10.0,SW,4.6,-,N/A,,Clear,230,2013-09-07 20:35:00
3:55 PM,87.8,67.5,51,29.98,10.0,WSW,9.2,-,N/A,,Clear,240,2013-09-07 20:55:00
4:15 PM,88.0,67.1,50,29.98,10.0,SW,6.9,-,N/A,,Clear,230,2013-09-07 21:15:00
4:35 PM,87.1,67.1,51,29.98,10.0,WSW,4.6,-,N/A,,Clear,240,2013-09-07 21:35:00
4:55 PM,87.1,67.5,52,29.97,10.0,SSW,5.8,-,N/A,,Scattered Clouds,210,2013-09-07 21:55:00
5:15 PM,86.9,68.5,54,29.97,10.0,South,4.6,-,N/A,,Clear,190,2013-09-07 22:15:00
5:35 PM,86.2,68.7,56,29.96,10.0,SSW,4.6,-,N/A,,Clear,200,2013-09-07 22:35:00
5:55 PM,85.3,69.1,58,29.97,10.0,SSW,4.6,-,N/A,,Clear,200,2013-09-07 22:55:00
6:15 PM,84.0,69.4,61,29.97,10.0,South,3.5,-,N/A,,Clear,180,2013-09-07 23:15:00
6:35 PM,82.2,69.6,66,29.97,10.0,South,4.6,-,N/A,,Clear,190,2013-09-07 23:35:00
6:55 PM,81.7,68.9,65,29.97,10.0,South,3.5,-,N/A,,Clear,180,2013-09-07 23:55:00
7:15 PM,81.3,68.2,64,29.97,10.0,Calm,Calm,-,N/A,,Clear,0,2013-09-08 00:15:00
7:35 PM,77.4,69.1,76,29.97,10.0,Calm,Calm,-,N/A,,Clear,0,2013-09-08 00:35:00
7:55 PM,76.1,68.9,78,29.98,5.0,Calm,Calm,-,N/A,,Haze,0,2013-09-08 00:55:00
8:15 PM,75.4,69.1,81,29.98,10.0,Calm,Calm,-,N/A,,Clear,0,2013-09-08 01:15:00
8:35 PM,72.9,68.2,85,29.98,10.0,Calm,Calm,-,N/A,,Clear,0,2013-09-08 01:35:00
8:55 PM,73.2,68.0,84,29.99,10.0,Calm,Calm,-,N/A,,Clear,0,2013-09-08 01:55:00
9:15 PM,72.9,67.8,84,29.99,10.0,Calm,Calm,-,N/A,,Clear,0,2013-09-08 02:15:00
9:35 PM,74.3,67.8,80,29.98,10.0,SSW,4.6,-,N/A,,Clear,200,2013-09-08 02:35:00
9:55 PM,74.7,67.8,79,29.99,10.0,Calm,Calm,-,N/A,,Clear,0,2013-09-08 02:55:00
10:15 PM,73.2,67.5,82,29.99,10.0,Calm,Calm,-,N/A,,Clear,0,2013-09-08 03:15:00
10:35 PM,71.2,68.9,92,29.99,10.0,Calm,Calm,-,N/A,,Clear,0,2013-09-08 03:35:00
10:55 PM,72.0,69.8,93,29.98,10.0,Calm,Calm,-,N/A,,Clear,0,2013-09-08 03:55:00
11:15 PM,70.9,69.6,96,29.98,10.0,Calm,Calm,-,N/A,,Clear,0,2013-09-08 04:15:00
11:35 PM,69.1,68.2,97,29.99,10.0,Calm,Calm,-,N/A,,Clear,0,2013-09-08 04:35:00
11:55 PM,69.1,68.9,99,29.98,7.0,Calm,Calm,-,N/A,,Clear,0,2013-09-08 04:55:00